{"data":{"norad_id":60941,"intl_designator":"2024-155T","name":"STARLINK-32224","alt_names":[],"object_type":"PAYLOAD","status":"ACTIVE","operator":null,"country":"US","launch_date":"2024-08-31","launch_site_code":"AFWTR","launch_vehicle":null,"mission":null,"orbit_class":"UNKNOWN","rcs_meters":null,"size_class":null,"mass_kg":null,"dimensions":null,"purposes":["comms"],"wikipedia_slug":null,"has_3d_model":false,"image_url":null,"decayed_at":null,"tle_current":{"epoch":"2026-05-25T03:08:24.245088Z","epoch_age_seconds":60250,"freshness":"FRESH","line1":"1 60941U 24155T   26145.13083617 -.00000046  00000+0  10557-4 0  9996","line2":"2 60941  53.1593 134.6544 0001139  67.8658 292.2463 15.30195681 98058","mean_motion":15.30195681,"eccentricity":0.0001139,"inclination_deg":53.1593,"raan_deg":134.6544,"arg_perigee_deg":67.8658,"mean_anomaly_deg":292.2463,"bstar":1.0557e-5,"rev_number":9805,"period_min":94.105611320177,"perigee_km":474.44736693561,"apogee_km":476.00856347469,"semimajor_km":6853.3649652052,"source":"CELESTRAK","updated_at":"2026-05-25T13:38:19.321171Z"}}}